Location: Winthrop
(48.4780°N, 120.1850°W)
Time: 17:17:48
(UTC-07:00)

Explorer 7 - Pass Details

Date: 06 February 2023
Orbit: 478 x 657 km, 50.3° (Epoch: 30 March)

Event Time Altitude Azimuth Distance (km) Brightness Sun altitude
Rises 14:37:26 0° 284° (WNW) 2,759 10.7 18.6°
Reaches altitude 10° 14:39:38 10° 286° (WNW) 1,892 9.9 18.4°
Maximum altitude 14:43:59 85° 14° (NNE) 611 7.3 18.0°
Drops below altitude 10° 14:48:36 10° 104° (ESE) 2,000 9.5 17.5°
Sets 14:50:59 0° 105° (ESE) 2,930 10.3 17.3°
